TimeCDT,TemperatureF,Dew PointF,Humidity,Sea Level PressureIn,VisibilityMPH,Wind Direction,Wind SpeedMPH,Gust SpeedMPH,PrecipitationIn,Events,Conditions,WindDirDegrees,DateUTC
12:15 AM,42.8,26.6,53,29.98,10.0,SSW,16.1,19.6,N/A,,Mostly Cloudy,210,2013-04-25 05:15:00
12:35 AM,42.8,26.6,53,29.99,10.0,SW,13.8,-,N/A,,Mostly Cloudy,220,2013-04-25 05:35:00
12:55 AM,42.8,26.6,53,29.98,10.0,SW,9.2,-,N/A,,Overcast,220,2013-04-25 05:55:00
1:15 AM,42.8,28.4,57,29.97,10.0,SW,11.5,-,N/A,,Overcast,220,2013-04-25 06:15:00
1:35 AM,42.8,30.2,61,29.97,10.0,WSW,11.5,-,N/A,,Overcast,240,2013-04-25 06:35:00
1:55 AM,41.0,30.2,65,29.97,10.0,SW,13.8,-,N/A,,Mostly Cloudy,220,2013-04-25 06:55:00
2:15 AM,41.0,30.2,65,29.96,10.0,SW,17.3,23.0,N/A,,Mostly Cloudy,230,2013-04-25 07:15:00
2:35 AM,41.0,32.0,70,29.96,10.0,SW,15.0,-,N/A,,Overcast,220,2013-04-25 07:35:00
2:55 AM,41.0,32.0,70,29.96,10.0,SW,15.0,18.4,N/A,,Overcast,220,2013-04-25 07:55:00
3:15 AM,41.0,32.0,70,29.96,10.0,WSW,19.6,26.5,N/A,,Overcast,240,2013-04-25 08:15:00
3:35 AM,37.4,32.0,81,29.97,10.0,SW,15.0,-,N/A,,Light Drizzle,230,2013-04-25 08:35:00
3:55 AM,37.4,33.8,87,29.97,10.0,SW,10.4,-,N/A,,Overcast,230,2013-04-25 08:55:00
4:15 AM,37.4,33.8,87,29.98,10.0,WSW,10.4,-,N/A,,Overcast,250,2013-04-25 09:15:00
4:35 AM,39.2,32.0,75,29.99,10.0,NW,10.4,18.4,N/A,,Light Drizzle,320,2013-04-25 09:35:00
4:55 AM,37.4,32.0,81,30.00,10.0,WNW,8.1,-,N/A,,Overcast,290,2013-04-25 09:55:00
5:15 AM,37.4,32.0,81,30.01,10.0,West,4.6,-,N/A,,Overcast,270,2013-04-25 10:15:00
5:35 AM,37.4,32.0,81,30.02,10.0,West,5.8,-,N/A,,Overcast,280,2013-04-25 10:35:00
5:55 AM,37.4,32.0,81,30.02,10.0,West,6.9,-,N/A,,Overcast,280,2013-04-25 10:55:00
6:15 AM,35.6,32.0,87,30.03,10.0,West,3.5,-,N/A,,Mostly Cloudy,280,2013-04-25 11:15:00
6:35 AM,35.6,32.0,87,30.04,10.0,WNW,5.8,-,N/A,,Mostly Cloudy,290,2013-04-25 11:35:00
6:55 AM,35.6,32.0,87,30.06,5.0,WNW,6.9,-,N/A,Rain,Rain,300,2013-04-25 11:55:00
7:15 AM,32.0,32.0,100,30.07,1.2,West,8.1,-,0.02,Snow,Light Snow,260,2013-04-25 12:15:00
7:35 AM,33.8,33.8,100,30.08,10.0,West,5.8,-,0.02,,Overcast,280,2013-04-25 12:35:00
7:55 AM,35.6,33.8,93,30.09,10.0,West,8.1,-,0.02,,Mostly Cloudy,270,2013-04-25 12:55:00
8:15 AM,37.4,33.8,87,30.09,10.0,West,6.9,-,N/A,,Mostly Cloudy,270,2013-04-25 13:15:00
8:35 AM,37.4,32.0,81,30.10,10.0,West,9.2,-,N/A,,Mostly Cloudy,270,2013-04-25 13:35:00
8:55 AM,37.4,32.0,81,30.11,10.0,West,10.4,16.1,N/A,,Overcast,280,2013-04-25 13:55:00
9:15 AM,39.2,32.0,75,30.12,10.0,WNW,9.2,16.1,N/A,,Overcast,290,2013-04-25 14:15:00
9:35 AM,41.0,30.2,65,30.12,10.0,WNW,10.4,16.1,N/A,,Overcast,290,2013-04-25 14:35:00
9:55 AM,41.0,30.2,65,30.13,10.0,West,8.1,20.7,N/A,,Mostly Cloudy,280,2013-04-25 14:55:00
10:15 AM,41.0,30.2,65,30.15,10.0,West,6.9,19.6,N/A,,Mostly Cloudy,280,2013-04-25 15:15:00
10:35 AM,41.0,32.0,70,30.16,10.0,West,8.1,-,N/A,,Mostly Cloudy,280,2013-04-25 15:35:00
10:55 AM,42.8,30.2,61,30.16,10.0,WNW,9.2,-,N/A,,Scattered Clouds,290,2013-04-25 15:55:00
11:15 AM,42.8,28.4,57,30.17,10.0,NW,8.1,18.4,N/A,,Mostly Cloudy,310,2013-04-25 16:15:00
11:35 AM,42.8,28.4,57,30.18,10.0,WNW,9.2,-,N/A,,Overcast,300,2013-04-25 16:35:00
11:55 AM,42.8,26.6,53,30.18,10.0,West,10.4,16.1,N/A,,Mostly Cloudy,280,2013-04-25 16:55:00
12:15 PM,42.8,26.6,53,30.19,10.0,NW,9.2,17.3,N/A,,Overcast,310,2013-04-25 17:15:00
12:35 PM,44.6,24.8,46,30.19,10.0,West,10.4,16.1,N/A,,Overcast,270,2013-04-25 17:35:00
12:55 PM,44.6,26.6,49,30.19,10.0,WSW,12.7,-,N/A,,Mostly Cloudy,250,2013-04-25 17:55:00
1:15 PM,46.4,23.0,40,30.19,10.0,West,9.2,-,N/A,,Mostly Cloudy,260,2013-04-25 18:15:00
1:35 PM,46.4,26.6,46,30.20,10.0,West,9.2,-,N/A,,Mostly Cloudy,270,2013-04-25 18:35:00
1:55 PM,48.2,23.0,37,30.21,10.0,WNW,11.5,19.6,N/A,,Scattered Clouds,300,2013-04-25 18:55:00
2:15 PM,48.2,21.2,34,30.21,10.0,NW,10.4,17.3,N/A,,Scattered Clouds,310,2013-04-25 19:15:00
2:35 PM,46.4,21.2,37,30.22,10.0,West,11.5,18.4,N/A,,Scattered Clouds,270,2013-04-25 19:35:00
2:55 PM,48.2,23.0,37,30.22,10.0,West,12.7,17.3,N/A,,Scattered Clouds,260,2013-04-25 19:55:00
3:15 PM,46.4,23.0,40,30.22,10.0,West,6.9,-,N/A,,Mostly Cloudy,280,2013-04-25 20:15:00
3:35 PM,46.4,19.4,34,30.21,10.0,West,8.1,-,N/A,,Mostly Cloudy,270,2013-04-25 20:35:00
3:55 PM,46.4,19.4,34,30.22,10.0,West,8.1,-,N/A,,Mostly Cloudy,270,2013-04-25 20:55:00
4:15 PM,50.0,19.4,30,30.22,10.0,WSW,13.8,17.3,N/A,,Mostly Cloudy,240,2013-04-25 21:15:00
4:35 PM,46.4,19.4,34,30.22,10.0,WSW,4.6,-,N/A,,Scattered Clouds,250,2013-04-25 21:35:00
4:55 PM,48.2,17.6,30,30.22,10.0,WSW,8.1,16.1,N/A,,Mostly Cloudy,240,2013-04-25 21:55:00
5:15 PM,48.2,19.4,32,30.23,10.0,WSW,13.8,-,N/A,,Scattered Clouds,240,2013-04-25 22:15:00
5:35 PM,48.2,21.2,34,30.23,10.0,SW,11.5,18.4,N/A,,Scattered Clouds,230,2013-04-25 22:35:00
5:55 PM,46.4,21.2,37,30.24,10.0,WSW,12.7,-,N/A,,Scattered Clouds,240,2013-04-25 22:55:00
6:15 PM,46.4,21.2,37,30.24,10.0,SW,10.4,-,N/A,,Scattered Clouds,230,2013-04-25 23:15:00
6:35 PM,46.4,21.2,37,30.24,10.0,SW,10.4,-,N/A,,Clear,220,2013-04-25 23:35:00
6:55 PM,46.4,23.0,40,30.24,10.0,WSW,9.2,-,N/A,,Clear,250,2013-04-25 23:55:00
7:15 PM,44.6,23.0,43,30.23,10.0,SW,6.9,-,N/A,,Clear,230,2013-04-26 00:15:00
7:35 PM,44.6,24.8,46,30.23,10.0,SW,5.8,-,N/A,,Clear,230,2013-04-26 00:35:00
7:55 PM,44.6,24.8,46,30.23,10.0,SW,4.6,-,N/A,,Clear,220,2013-04-26 00:55:00
8:15 PM,44.6,24.8,46,30.23,10.0,SSW,3.5,-,N/A,,Clear,210,2013-04-26 01:15:00
8:35 PM,42.8,23.0,46,30.24,10.0,South,3.5,-,N/A,,Clear,180,2013-04-26 01:35:00
8:55 PM,42.8,23.0,46,30.25,10.0,South,4.6,-,N/A,,Clear,180,2013-04-26 01:55:00
9:15 PM,41.0,26.6,57,30.26,10.0,South,4.6,-,N/A,,Clear,170,2013-04-26 02:15:00
9:35 PM,41.0,26.6,57,30.27,10.0,SSE,5.8,-,N/A,,Clear,160,2013-04-26 02:35:00
9:55 PM,41.0,26.6,57,30.27,10.0,South,6.9,-,N/A,,Clear,170,2013-04-26 02:55:00
10:15 PM,39.2,28.4,65,30.27,10.0,South,5.8,-,N/A,,Clear,180,2013-04-26 03:15:00
10:35 PM,39.2,26.6,61,30.28,10.0,South,5.8,-,N/A,,Clear,170,2013-04-26 03:35:00
10:55 PM,39.2,28.4,65,30.28,10.0,South,5.8,-,N/A,,Clear,180,2013-04-26 03:55:00
11:15 PM,37.4,28.4,70,30.28,10.0,South,5.8,-,N/A,,Clear,180,2013-04-26 04:15:00
11:35 PM,37.4,28.4,70,30.28,10.0,South,6.9,-,N/A,,Clear,180,2013-04-26 04:35:00
11:55 PM,37.4,28.4,70,30.28,10.0,South,6.9,-,N/A,,Clear,180,2013-04-26 04:55:00